    Schmidt-Cassegrain + CCD.
Q06 Tarui Observatory, Tarui.  Observer H. Watanabe.  0.35-m f/1.9 Schmidt-
    Cassegrain + CMO.
T05 ATLAS-HKO, Haleakala.  Observers L. Denneau, R. Siverd, J. Tonry, H.
    Weiland.  Measurers L. Denneau, N. Erasmus, A. Fitzsimmons, A. Lawrence,
    J. Robinson, R. Siverd, J. Tonry, H. Weiland.  0.5-m Reflector + CCD.
Orbital elements:
2024 CD4                                                 Earth MOID = 0.0096 AU
Epoch 2023 Sept. 13.0 TT = JDT 2460200.5                Veres                   
M 271.20739              (2000.0)            P               Q                  
n   0.61873634     Peri.  168.73525     -0.67925436     -0.72743303             
a   1.3639516      Node   323.92699     +0.65986038     -0.54734737             
e   0.2709506      Incl.    9.50520     +0.32124414     -0.41382611             
P   1.59           H   26.77          G   0.15           U   6                  
Residuals in seconds of arc
240211 T05  0.2+  1.2-    240213 M17  0.3+  2.0-    240213 M28  1.1-  1.1+
240211 T05  0.0   1.9+    240213 M17  0.2-  0.1-    240213 M28  0.2-  1.2-
240211 T05 (1.4+  6.8-)   240213 L47  0.3+  0.5+    240213 L01  0.1-  0.2+
240211 T05  0.6+  2.7-    240213 033  0.2+  0.1+    240213 L01  0.2-  0.3+
240211 T05  0.9-  1.7+    240213 L47  0.9-  0.2+    240213 L01  0.2-  0.2+
240213 T05  0.1-  0.1+    240213 033  0.0   0.4+    240213 L01  0.3-  0.2+
240213 T05  0.1-  0.1+    240213 033  0.1-  0.6+    240213 L01  0.2-  0.2+
240213 T05  0.2-  0.6-    240213 033  0.1+  0.2-    240213 G17  0.5-  0.6+
240213 T05  0.1+  0.3+    240213 J57  0.1+  0.2-    240213 K62  0.1+  0.1+
240213 Q06  0.2+  0.5+    240213 J57  0.0   0.5-    240213 K62  0.3+  0.1+
240213 Q06  0.3-  0.1+    240213 958  0.2-  0.1+    240213 K62  0.2+  0.2-
240213 Q06  0.2-  0.6+    240213 J57  0.0   0.6-    240213 K62  0.1+  0.1-
240213 900  0.2+  0.0     240213 958  0.1-  0.1-    240213 I93  0.1+  0.7-
240213 900  0.1+  0.1-    240213 595  0.0   0.0     240213 I93  0.1+  0.7-
240213 900  0.2+  0.1+    240213 958  0.0   0.0     240213 203  0.1+  0.4+
240213 900  0.2+  0.1+    240213 K19  0.1-  0.1-    240213 I93  0.3+  0.7-
240213 900  0.1+  0.1+    240213 595  0.4-  0.2-    240213 203  0.1-  0.1+
240213 G02  0.2+  0.9-    240213 K19  0.1-  0.7+    240213 203  0.2+  0.2-
240213 G02  0.3-  0.6-    240213 K19  0.0   0.5+    240213 104  0.1-  0.1+
240213 G02  0.3+  2.6-    240213 595  0.3-  0.1+    240213 104  0.1-  0.1+
240213 K74  0.1+  0.1-    240213 G17  0.0   0.3+    240213 104  0.1-  0.0
240213 K74  0.0   0.2+    240213 L47  0.4-  1.6-    240213 130  0.2+  0.1+
240213 K74  0.1-  0.4+    240213 K78  0.1-  0.5+    240213 130  0.0   0.3-
240213 K74  0.2-  0.3+    240213 K78  0.1+  0.6+    240213 130  0.1-  0.0
240213 K74  0.2-  0.3+    240213 L47  0.2-  0.4-    240213 130  0.1-  0.2+
240213 L47  0.4+  0.3-    240213 L47  0.2-  0.2-    240213 M50  0.3+  0.8-
240213 M17  1.5+  0.7-    240213 G17  0.3-  0.2+    240213 M50  0.3+  0.4-
240213 L47  0.6-  0.6-    240213 K78  0.5-  0.7+
Ephemeris:
2024 CD4                 a,e,i = 1.36, 0.27, 10                  q = 0.9944
Date    TT    R. A. (2000) Decl.     Delta      r    Elong.  Phase     V
2024 01 15    23 48 59.3 +71 17 45   0.1035  1.0095   101.6    72.6    24.4
...
2024 01 30    00 36 31.7 +75 13 16   0.05294 0.9952    99.6    77.4    23.1
...
2024 02 07    04 39 02.2 +78 19 28   0.02543 0.9948   109.3    69.3    21.2
...
2024 02 13    09 02 10.9 +26 01 21   0.01117 0.9980   164.4    15.4    17.9
2024 02 14    09 18 06.9 +07 45 16   0.01150 0.9987   171.0     8.9    17.7
2024 02 15    09 30 38.7 -07 58 35   0.01293 0.9996   158.4    21.3    18.4
...
2024 02 21    10 10 43.9 -44 59 55   0.03078 1.0063   124.1    54.5    21.2
...
2024 02 29    10 30 52.8 -54 09 59   0.05900 1.0194   117.8    59.3    22.8
...
2024 03 15    10 45 42.3 -56 32 51   0.1120  1.0554   120.3    54.5    24.1
M. P. C. Staff               (C) Copyright 2024 MPC           M.P.E.C. 2024-C155
    
    
More information about the Iaude
mailing list